Location: Caltech
(34.1382°N, 118.1253°W)
Time: 14:09:11
(UTC-08:00)

ALOS - Visible Passes

Search period start: 05 February 2016 00:00
Search period end: 15 February 2016 00:00
Orbit: 684 x 688 km, 97.9° (Epoch: 05 February)

Date Brightness Start Highest point End Pass type
(mag) Time Alt. Az. Time Alt. Az. Time Alt. Az.
10 Feb 4.6 19:29:59 11° N 19:29:59 11° N 19:30:15 10° N visible
11 Feb 4.9 20:07:58 11° NNW 20:07:58 11° NNW 20:08:12 10° NNW visible
12 Feb 4.4 19:07:26 12° NNE 19:07:26 12° NNE 19:07:52 10° NNE visible
13 Feb 4.4 19:45:25 15° N 19:45:25 15° N 19:46:17 10° N visible
14 Feb 4.4 18:44:51 10° NE 18:44:51 10° NE 18:44:59 10° NNE visible
14 Feb 4.9 20:23:23 13° NNW 20:23:23 13° NNW 20:23:54 10° NNW visible
